When you browse on this site, cookies collect data to enhance your experience and personalize the content and advertising you see.
Visit our Privacy Policy to learn more. By continuing to use the site, you agree to this use of cookies and data.
  • en Suisse
  • Liste des pays
  • À 7 jours
  • Température de l'eau
  • Carte météo
  • Widgets météo
  • user-avatar
    Se connecter

    Météo par heure à Pomoriye

    Ce jour, 5 Juin, Vendredi

    Heure Température Précipitation Vent Pression Humidité
    00:00 +16°C° 0 mm 3 m/s 758 mmHg 85%
    01:00 +16°C° 0 mm 3 m/s 758 mmHg 85%
    02:00 +16°C° 0 mm 3 m/s 758 mmHg 85%
    03:00 +16°C° 0 mm 3 m/s 758 mmHg 86%
    04:00 +16°C° 0 mm 3 m/s 758 mmHg 87%
    05:00 +16°C° 0 mm 3 m/s 758 mmHg 87%
    06:00 +18°C° 0 mm 3 m/s 758 mmHg 83%
    07:00 +19°C° 0 mm 4 m/s 758 mmHg 78%
    08:00 +21°C° 0 mm 5 m/s 758 mmHg 72%
    09:00 +23°C° 0 mm 5 m/s 758 mmHg 67%
    10:00 +24°C° 0 mm 6 m/s 758 mmHg 63%
    11:00 +27°C° 0 mm 7 m/s 758 mmHg 59%
    12:00 +27°C° 0 mm 7 m/s 758 mmHg 57%
    13:00 +28°C° 0 mm 7 m/s 758 mmHg 56%
    14:00 +28°C° 0 mm 7 m/s 757 mmHg 55%
    15:00 +27°C° 0 mm 7 m/s 757 mmHg 56%
    16:00 +27°C° 0 mm 7 m/s 757 mmHg 58%
    17:00 +26°C° 0 mm 6 m/s 757 mmHg 60%
    18:00 +24°C° 0 mm 6 m/s 757 mmHg 60%
    19:00 +22°C° 0 mm 5 m/s 758 mmHg 60%
    20:00 +20°C° 0 mm 5 m/s 758 mmHg 60%
    21:00 +19°C° 0 mm 4 m/s 758 mmHg 62%
    22:00 +19°C° 0 mm 3 m/s 758 mmHg 64%
    23:00 +18°C° 0 mm 3 m/s 758 mmHg 66%

    Demain, 6 Juin, Samedi

    Heure Température Précipitation Vent Pression Humidité
    00:00 +18°C° 0 mm 3 m/s 758 mmHg 68%
    01:00 +17°C° 0 mm 2 m/s 758 mmHg 71%
    02:00 +16°C° 0 mm 2 m/s 758 mmHg 73%
    03:00 +16°C° 0 mm 2 m/s 758 mmHg 73%
    04:00 +16°C° 0 mm 2 m/s 758 mmHg 74%
    05:00 +16°C° 0 mm 2 m/s 758 mmHg 74%
    06:00 +18°C° 0 mm 2 m/s 758 mmHg 69%
    07:00 +20°C° 0 mm 2 m/s 758 mmHg 64%
    08:00 +23°C° 0 mm 2 m/s 758 mmHg 59%
    09:00 +25°C° 0 mm 2 m/s 758 mmHg 54%
    10:00 +26°C° 0 mm 2 m/s 758 mmHg 50%
    11:00 +28°C° 0 mm 3 m/s 758 mmHg 45%
    12:00 +28°C° 0 mm 3 m/s 758 mmHg 46%
    13:00 +28°C° 0 mm 3 m/s 758 mmHg 47%
    14:00 +28°C° 0 mm 4 m/s 758 mmHg 48%
    15:00 +28°C° 0 mm 4 m/s 757 mmHg 51%
    16:00 +27°C° 0 mm 4 m/s 757 mmHg 55%
    17:00 +26°C° 0 mm 4 m/s 757 mmHg 58%
    18:00 +23°C° 0 mm 4 m/s 757 mmHg 65%
    19:00 +21°C° 0 mm 3 m/s 757 mmHg 71%
    20:00 +19°C° 0 mm 3 m/s 757 mmHg 78%
    21:00 +18°C° 0.1 mm 3 m/s 757 mmHg 81%
    22:00 +18°C° 0.1 mm 2 m/s 757 mmHg 84%
    23:00 +17°C° 0.1 mm 2 m/s 757 mmHg 87%

    Après-demain, 7 Juin, Dimanche

    Heure Température Précipitation Vent Pression Humidité
    00:00 +17°C° 0 mm 2 m/s 757 mmHg 87%
    01:00 +17°C° 0 mm 2 m/s 756 mmHg 87%
    02:00 +17°C° 0 mm 2 m/s 756 mmHg 87%
    03:00 +17°C° 0 mm 2 m/s 756 mmHg 87%
    04:00 +17°C° 0 mm 2 m/s 756 mmHg 87%
    05:00 +17°C° 0 mm 2 m/s 755 mmHg 88%
    06:00 +18°C° 0.2 mm 2 m/s 756 mmHg 84%
    07:00 +20°C° 0.2 mm 2 m/s 756 mmHg 81%
    08:00 +21°C° 0.2 mm 3 m/s 756 mmHg 77%
    09:00 +24°C° 0.1 mm 2 m/s 756 mmHg 72%
    10:00 +25°C° 0.1 mm 2 m/s 756 mmHg 68%
    11:00 +26°C° 0.1 mm 2 m/s 756 mmHg 63%
    12:00 +27°C° 0 mm 2 m/s 756 mmHg 60%
    13:00 +28°C° 0 mm 2 m/s 755 mmHg 56%
    14:00 +29°C° 0 mm 2 m/s 755 mmHg 53%
    15:00 +28°C° 0 mm 3 m/s 755 mmHg 56%
    16:00 +28°C° 0 mm 3 m/s 755 mmHg 59%
    17:00 +27°C° 0 mm 3 m/s 755 mmHg 62%
    18:00 +25°C° 0 mm 2 m/s 755 mmHg 71%
    19:00 +23°C° 0 mm 2 m/s 755 mmHg 80%
    20:00 +19°C° 0 mm 2 m/s 755 mmHg 89%
    21:00 +19°C° 0 mm 2 m/s 756 mmHg 90%
    22:00 +19°C° 0 mm 1 m/s 756 mmHg 90%
    23:00 +19°C° 0 mm 1 m/s 756 mmHg 90%

    8 Juin, Lundi

    Heure Température Précipitation Vent Pression Humidité
    00:00 +19°C° 0 mm 1 m/s 756 mmHg 91%
    01:00 +18°C° 0 mm 1 m/s 756 mmHg 91%
    02:00 +18°C° 0 mm 1 m/s 756 mmHg 91%
    03:00 +18°C° 0 mm 1 m/s 756 mmHg 91%
    04:00 +18°C° 0 mm 1 m/s 756 mmHg 91%
    05:00 +17°C° 0 mm 2 m/s 756 mmHg 91%
    06:00 +19°C° 0 mm 2 m/s 756 mmHg 85%
    07:00 +21°C° 0 mm 2 m/s 756 mmHg 79%
    08:00 +24°C° 0 mm 2 m/s 756 mmHg 73%
    09:00 +25°C° 0 mm 2 m/s 757 mmHg 68%
    10:00 +26°C° 0 mm 1 m/s 757 mmHg 62%
    11:00 +28°C° 0 mm 1 m/s 757 mmHg 57%
    12:00 +28°C° 0.1 mm 1 m/s 756 mmHg 58%
    13:00 +28°C° 0.1 mm 2 m/s 756 mmHg 58%
    14:00 +28°C° 0.1 mm 2 m/s 756 mmHg 58%
    15:00 +28°C° 0.3 mm 2 m/s 756 mmHg 61%
    16:00 +27°C° 0.3 mm 2 m/s 756 mmHg 64%
    17:00 +27°C° 0.3 mm 2 m/s 756 mmHg 66%
    18:00 +25°C° 0 mm 2 m/s 756 mmHg 72%
    19:00 +23°C° 0 mm 2 m/s 756 mmHg 77%
    20:00 +21°C° 0 mm 2 m/s 756 mmHg 82%
    21:00 +21°C° 0 mm 1 m/s 756 mmHg 82%
    22:00 +21°C° 0 mm 1 m/s 756 mmHg 82%
    23:00 +21°C° 0 mm 1 m/s 756 mmHg 82%

    9 Juin, Mardi

    Heure Température Précipitation Vent Pression Humidité
    00:00 +21°C° 0.4 mm 1 m/s 756 mmHg 83%
    01:00 +20°C° 0.4 mm 1 m/s 756 mmHg 85%
    02:00 +20°C° 0.4 mm 1 m/s 756 mmHg 86%
    03:00 +20°C° 0.5 mm 1 m/s 756 mmHg 86%
    04:00 +20°C° 0.5 mm 1 m/s 756 mmHg 87%
    05:00 +20°C° 0.5 mm 1 m/s 756 mmHg 87%
    06:00 +21°C° 0 mm 1 m/s 756 mmHg 82%
    07:00 +23°C° 0 mm 1 m/s 757 mmHg 78%
    08:00 +25°C° 0 mm 1 m/s 757 mmHg 74%
    09:00 +26°C° 0.3 mm 1 m/s 757 mmHg 69%
    10:00 +27°C° 0.3 mm 1 m/s 757 mmHg 64%
    11:00 +29°C° 0.3 mm 1 m/s 757 mmHg 60%
    12:00 +29°C° 0.3 mm 2 m/s 757 mmHg 59%
    13:00 +29°C° 0.3 mm 2 m/s 757 mmHg 58%
    14:00 +29°C° 0.3 mm 3 m/s 757 mmHg 57%
    15:00 +28°C° 0.5 mm 3 m/s 757 mmHg 62%
    16:00 +27°C° 0.5 mm 3 m/s 756 mmHg 68%
    17:00 +26°C° 0.5 mm 3 m/s 756 mmHg 74%
    18:00 +24°C° 0 mm 2 m/s 756 mmHg 78%
    19:00 +23°C° 0 mm 2 m/s 757 mmHg 82%
    20:00 +21°C° 0 mm 2 m/s 757 mmHg 85%
    21:00 +20°C° 0 mm 2 m/s 757 mmHg 86%
    22:00 +21°C° 0 mm 1 m/s 757 mmHg 86%
    23:00 +21°C° 0 mm 1 m/s 757 mmHg 87%

    10 Juin, Mercredi

    Heure Température Précipitation Vent Pression Humidité
    00:00 +20°C° 0 mm 1 m/s 757 mmHg 88%
    01:00 +20°C° 0 mm 1 m/s 757 mmHg 88%
    02:00 +20°C° 0 mm 1 m/s 757 mmHg 89%
    03:00 +20°C° 0 mm 1 m/s 757 mmHg 88%
    04:00 +20°C° 0 mm 1 m/s 757 mmHg 88%
    05:00 +20°C° 0 mm 1 m/s 757 mmHg 88%
    06:00 +22°C° 0 mm 1 m/s 758 mmHg 83%
    07:00 +23°C° 0 mm 1 m/s 758 mmHg 78%
    08:00 +23°C° 0 mm 0 m/s 758 mmHg 73%
    09:00 +26°C° 0 mm 1 m/s 758 mmHg 69%
    10:00 +28°C° 0 mm 1 m/s 758 mmHg 65%
    11:00 +29°C° 0 mm 2 m/s 758 mmHg 61%
    12:00 +29°C° 0.2 mm 2 m/s 758 mmHg 61%
    13:00 +29°C° 0.2 mm 2 m/s 758 mmHg 61%
    14:00 +29°C° 0.2 mm 3 m/s 757 mmHg 61%
    15:00 +28°C° 0.2 mm 3 m/s 757 mmHg 64%
    16:00 +28°C° 0.2 mm 3 m/s 757 mmHg 67%
    17:00 +27°C° 0.2 mm 3 m/s 757 mmHg 70%
    18:00 +25°C° 0.1 mm 3 m/s 757 mmHg 75%
    19:00 +24°C° 0.1 mm 3 m/s 757 mmHg 81%
    20:00 +21°C° 0.1 mm 3 m/s 757 mmHg 87%
    21:00 +20°C° 0 mm 2 m/s 757 mmHg 87%
    22:00 +20°C° 0 mm 2 m/s 757 mmHg 88%
    23:00 +20°C° 0 mm 1 m/s 757 mmHg 89%
    Voir plus